ワイズ彗星

356P/WISE (2026)

English version
Home page
Updated on January 31, 2026

---------------------------------------------------------------------

・ プロフィール

・ 写真集

・ 軌道要素

Epoch 2025 May 5.0 TT = JDT 2460800.5
T 2026 June 12.31371 TT                                 Pike
q   2.6746202            (2000.0)            P               Q
n   0.11647884     Peri.  226.26189     +0.88756988     -0.45735295
a   4.1524526      Node   160.74739     +0.45594610     +0.85500712
e   0.3558939      Incl.    9.63865     +0.06582445     +0.24452219
P   8.46
From 200 observations 2009 Nov. 9-2025 Aug. 2, mean residual 0".8.

・ 光度変化

        m1 = 12.5 + 5 logΔ + 10.0 log r

---------------------------------------------------------------------

軌道要素はM.P.E.C. 2025-P113に掲載されたものです。
光度グラフはComet for Windowsで作成したものです。

---------------------------------------------------------------------

Copyright(C) Seiichi Yoshida (comet@aerith.net). All rights reserved.